Fredericksburg, VA

7:38 PM EST on December 15, 2019 (GMT -0500)
Shannon

Weather History for KEZF - October, 2019

Change the Weather History Date:

Thursday, October 24, 2019

  Actual Average (KNYG) Record (KNYG)
Temperature  
Mean Temperature 55 °F -  
Max Temperature 71 °F 62 °F 82 °F (2001)
Min Temperature 39 °F 43 °F 34 °F (2003)
Degree Days  
Heating Degree Days 10    
Growing Degree Days 5 (Base 50)    
Moisture  
Dew Point 45 °F    
Average Humidity 80    
Maximum Humidity 100    
Minimum Humidity 34    
Precipitation  
Precipitation 0.00 in - - ()
Sea Level Pressure  
Sea Level Pressure 30.29 in    
Wind  
Wind Speed 1 mph ()    
Max Wind Speed 10 mph    
Max Gust Speed 17 mph    
Visibility 9.4 miles    
Events      
Averages and records for this station are not official NWS values.
T = Trace of Precipitation, MM = Missing Value Source: Averaged Metar Reports

Daily Weather History Graph

Daily Weather History Graph

Search for Another Location

Airport or City:

Astronomy

Oct. 24, 2019 Rise Set
Actual Time 7:27 AM EDT 6:20 PM EDT
Civil Twilight 7:00 AM EDT 6:47 PM EDT
Nautical Twilight 6:29 AM EDT 7:17 PM EDT
Astronomical Twilight 5:58 AM EDT 7:48 PM EDT
Moon 3:00 AM EDT (10/24) 4:41 PM EDT (10/24)
Length of Visible Light 11h 46m
Length of Day
10h 52m
Waning Crescent, 17% of the Moon is Illuminated
Oct 24
Waning Crescent
Oct 27
New
Nov 4
First Quarter
Nov 12
Full
Nov 19
Last Quarter

Hourly Weather History & Observations

Time (EDT) Temp. Dew Point Humidity Pressure Visibility Wind Dir Wind Speed Gust Speed Precip Events Conditions
12:15 AM 45.5 °F 45.5 °F 100% 30.22 in 10.0 mi Calm Calm - N/A   Clear
12:35 AM 44.8 °F 44.8 °F 100% 30.23 in 10.0 mi Calm Calm - N/A   Clear
12:55 AM 44.1 °F 44.1 °F 100% 30.23 in 10.0 mi Calm Calm - N/A   Clear
1:15 AM 44.1 °F 44.1 °F 100% 30.23 in 10.0 mi Calm Calm - N/A   Clear
1:35 AM 43.9 °F 43.9 °F 100% 30.24 in 10.0 mi Calm Calm - N/A   Clear
1:55 AM 43.2 °F 43.2 °F 100% 30.25 in 10.0 mi Calm Calm - N/A   Clear
2:15 AM 42.8 °F 42.8 °F 100% 30.25 in 10.0 mi Calm Calm - N/A   Clear
2:35 AM 42.4 °F 42.4 °F 100% 30.25 in 10.0 mi Calm Calm - N/A   Clear
2:55 AM 42.1 °F 42.1 °F 100% 30.25 in 10.0 mi Calm Calm - N/A   Clear
3:15 AM 41.5 °F 41.5 °F 100% 30.25 in 10.0 mi Calm Calm - N/A   Clear
3:35 AM 42.1 °F 42.1 °F 100% 30.26 in 10.0 mi Calm Calm - N/A   Clear
3:55 AM 41.0 °F 41.0 °F 100% 30.26 in 10.0 mi Calm Calm - N/A   Clear
4:15 AM 40.5 °F 40.5 °F 100% 30.26 in 3.0 mi Calm Calm - N/A   Clear
4:35 AM 41.0 °F 41.0 °F 100% 30.27 in 10.0 mi Calm Calm - N/A   Clear
4:55 AM 40.6 °F 40.6 °F 100% 30.28 in 10.0 mi Calm Calm - N/A   Clear
5:15 AM 40.6 °F 40.6 °F 100% 30.28 in 10.0 mi Calm Calm - N/A   Clear
5:35 AM 40.5 °F 40.5 °F 100% 30.29 in 10.0 mi Calm Calm - N/A   Clear
5:55 AM 40.3 °F 40.3 °F 100% 30.30 in 10.0 mi Calm Calm - N/A   Clear
6:15 AM 40.3 °F 40.3 °F 100% 30.30 in 10.0 mi Calm Calm - N/A   Clear
6:35 AM 40.1 °F 40.1 °F 100% 30.31 in 10.0 mi Calm Calm - N/A   Clear
6:55 AM 40.1 °F 40.1 °F 100% 30.31 in 10.0 mi Calm Calm - N/A   Clear
7:15 AM 39.6 °F 39.6 °F 100% 30.31 in 10.0 mi Calm Calm - N/A   Clear
7:35 AM 39.7 °F 39.7 °F 100% 30.31 in 10.0 mi Calm Calm - N/A   Clear
7:55 AM 40.1 °F 40.1 °F 100% 30.32 in 10.0 mi Calm Calm - N/A   Clear
8:15 AM 41.2 °F 41.2 °F 100% 30.32 in 10.0 mi Calm Calm - N/A   Clear
8:35 AM 43.5 °F 43.5 °F 100% 30.33 in 10.0 mi Calm Calm - N/A   Clear
9:15 AM 47.7 °F 45.5 °F 92% 30.34 in 10.0 mi Calm Calm - N/A   Clear
9:35 AM 49.3 °F 46.8 °F 91% 30.35 in 10.0 mi Calm Calm - N/A   Clear
9:55 AM 52.5 °F 48.4 °F 86% 30.35 in 10.0 mi Calm Calm - N/A   Clear
10:15 AM 54.9 °F 48.7 °F 80% 30.35 in 10.0 mi Calm Calm - N/A   Clear
10:55 AM 59.9 °F 50.7 °F 72% 30.35 in 10.0 mi East 3.5 mph - N/A   Clear
11:15 AM 59.9 °F 51.3 °F 73% 30.35 in 10.0 mi Calm Calm - N/A   Clear
11:35 AM 62.4 °F 51.6 °F 68% 30.35 in 10.0 mi Calm Calm - N/A   Clear
11:55 AM 64.0 °F 52.2 °F 65% 30.35 in 10.0 mi SSE 3.5 mph - N/A   Clear
12:15 PM 65.3 °F 52.9 °F 64% 30.33 in 10.0 mi Calm Calm - N/A   Clear
12:35 PM 67.3 °F 48.6 °F 51% 30.32 in 10.0 mi South 9.2 mph - N/A   Clear
12:55 PM 68.2 °F 47.1 °F 47% 30.31 in 10.0 mi SSE 8.1 mph - N/A   Clear
1:15 PM 68.9 °F 45.7 °F 43% 30.31 in 10.0 mi South 6.9 mph - N/A   Clear
1:35 PM 70.0 °F 44.8 °F 40% 30.30 in 10.0 mi SSW 10.4 mph - N/A   Clear
1:55 PM 70.0 °F 42.4 °F 37% 30.29 in 10.0 mi SSW 9.2 mph 17.3 mph N/A   Clear
2:15 PM 70.7 °F 42.6 °F 36% 30.29 in 10.0 mi SSW 10.4 mph - N/A   Clear
2:35 PM 71.6 °F 42.1 °F 34% 30.28 in 10.0 mi South 6.9 mph - N/A   Clear
2:55 PM 71.6 °F 43.7 °F 37% 30.27 in 10.0 mi SSE 9.2 mph - N/A   Clear
3:15 PM 71.6 °F 43.7 °F 37% 30.27 in 10.0 mi SSW 8.1 mph - N/A   Clear
3:35 PM 71.6 °F 43.5 °F 36% 30.27 in 10.0 mi South 5.8 mph - N/A   Clear
3:55 PM 71.6 °F 43.9 °F 37% 30.27 in 10.0 mi SSW 6.9 mph - N/A   Clear
4:15 PM 71.6 °F 43.3 °F 36% 30.26 in 10.0 mi SSW 6.9 mph - N/A   Clear
4:35 PM 71.1 °F 43.0 °F 36% 30.27 in 10.0 mi South 4.6 mph - N/A   Clear
4:55 PM 71.1 °F 43.9 °F 38% 30.27 in 7.0 mi SSE 6.9 mph - N/A   Clear
5:15 PM 70.3 °F 44.4 °F 39% 30.27 in 5.0 mi South 3.5 mph - N/A   Haze
5:35 PM 69.1 °F 45.5 °F 43% 30.26 in 4.0 mi South 5.8 mph - N/A   Haze
5:55 PM 65.8 °F 48.6 °F 54% 30.27 in 2.5 mi South 3.5 mph - N/A   Haze
6:15 PM 61.9 °F 51.3 °F 68% 30.27 in 5.0 mi Calm Calm - N/A   Haze
6:35 PM 59.5 °F 51.6 °F 75% 30.27 in 7.0 mi Calm Calm - N/A   Clear
6:55 PM 57.0 °F 51.8 °F 83% 30.28 in 7.0 mi Calm Calm - N/A   Clear
7:15 PM 55.2 °F 51.3 °F 87% 30.28 in 10.0 mi Calm Calm - N/A   Clear
7:35 PM 54.3 °F 51.1 °F 89% 30.29 in 10.0 mi Calm Calm - N/A   Clear
7:55 PM 53.1 °F 50.0 °F 89% 30.29 in 10.0 mi Calm Calm - N/A   Clear
8:15 PM 52.7 °F 50.0 °F 91% 30.29 in 10.0 mi Calm Calm - N/A   Clear
8:35 PM 51.6 °F 49.5 °F 92% 30.29 in 10.0 mi Calm Calm - N/A   Clear
8:55 PM 50.9 °F 48.7 °F 92% 30.30 in 10.0 mi Calm Calm - N/A   Clear
9:15 PM 49.8 °F 48.4 °F 95% 30.30 in 10.0 mi Calm Calm - N/A   Clear
9:35 PM 49.1 °F 48.6 °F 98% 30.31 in 10.0 mi Calm Calm - N/A   Clear
9:55 PM 48.7 °F 48.7 °F 100% 30.31 in 10.0 mi Calm Calm - N/A   Clear
10:15 PM 48.7 °F 48.7 °F 100% 30.32 in 10.0 mi Calm Calm - N/A   Clear
10:35 PM 47.7 °F 47.7 °F 100% 30.33 in 10.0 mi Calm Calm - N/A   Clear
10:55 PM 47.3 °F 47.3 °F 100% 30.32 in 10.0 mi Calm Calm - N/A   Clear
11:15 PM 47.3 °F 47.3 °F 100% 30.32 in 10.0 mi Calm Calm - N/A   Clear
11:35 PM 47.3 °F 47.3 °F 100% 30.32 in 10.0 mi Calm Calm - N/A   Clear
11:55 PM 46.6 °F 46.4 °F 99% 30.32 in 10.0 mi Calm Calm - N/A   Clear